STARLINK-5686, 55450

Orbit data source: Space-Track

STARLINK-5686, 55450 is a payload satellite owned by SpaceX/Seattle (US) in LEO that was launched on Thu, 02 Feb 2023 UTC via an FALCON 9 launch vehicle from the Air Force Eastern Test Range (AFETR). Payload-class satellites include a variety of spacecraft equipped with specific instruments for various scientific and technological missions. These include communications satellites like Starlink; space stations such as the ISS; scientific satellites like the Hubble; Earth observation satellites from companies like Planet Labs, Umbra, and HawkEye 360; GPS; miniature CubeSats for education and research; and military/defense satellites.

Loading next visibility...
Identifier
55450, 2023-015B
Orbit
LEO
Country
Flag of USUS
Related business
Manufacturer
SpaceX/Seattle
Mission
Operational Commercial Communications
Bus & Motor
STARLINK, Unknown motor
Mass
305 kg wet, ~290 kg dry
Launch date (UTC)
2023-02-02 (4 years ago)
Launch vehicle
FALCON 9
Launch site
Air Force Eastern Test Range (AFETR)
Object type
Payload
Rocket body
Debris
Shape & HBR
Box + 1 Pan, 10.1 m
Radar Cross Section
13.562 m², Large (>1 m²)

Expand to show TLE details & history
Last TLE update: 7 hours ago

TLE from 7 hours ago
0 STARLINK-5686
1 55450U 23015B   26258.60212287 -.00000119  00000-0  51961-5 0  9990
2 55450  43.0049 336.4660 0001630 294.0827  65.9854 15.27575209200700
Epoch: 2026-09-15T14:27Z
TLE epoch observation values (Epoch: 2026-09-15T14:27:03.415Z)
Latitude
-0.00005°
Longitude
125.13601°
Altitude
482.384 km
Speed
7.626 km/s
True Right ascension
22h 25m 51s
True Declination
0° 00' 00"
Sunlit
Object was in full shadow at epoch
Visualization orbit readout
Latitude
Unknown
Longitude
Unknown
Altitude
Unknown
Speed
Unknown
Apparent Right ascension
Unknown
Apparent Declination
Unknown
Sunlit
N/A
Visualization observer readout
Local Sidereal Time
13:57:20
Azimuth
Unknown
Elevation
Unknown
Doppler factor
Unknown
Orbital elements
Apogee altitude
486.126 km
Perigee altitude
483.889 km
Semi-major axis
6,863.145 km
Eccentricity
0.00016
Inclination
43.0049°
RAAN
336.466°
Arg. of periapsis
294.0827°
True anomaly
66.00246°
Mean anomaly
65.9854°
Eccentric anomaly
65.99393°
Mean motion
3.81732 °/min
Orbital period
94.31 mins
BSTAR
0.0000051961
Loading maneuver chart data...
Computing Atmospheric mass density...
Loading historical data...
Loading historical data...
Loading historical data...
Loading historical data...
Loading historical data...
Loading historical data...
Loading historical data...

Documentation

Showing up to 5 results
|